Flag for U.S.A. Weather past 2 weeks in Sheboygan, Wisconsin, U.S.A.

Now
16 °F

Clear.


Feels Like: 6 °F
Forecast: 13 / 27 °F
Wind: 7 mph from South

Location: Sheboygan County Memorial Airport

Current Time: Feb 28, 2015 at 7:42:26 PM

Latest Report: Feb 28, 2015 at 6:53 PM


Visibility: 10 mi

Pressure: 30.55 "Hg

Humidity: 65%

Dew point: 6 °F

Location of SheboyganLocation

Historic Weather in Sheboygan — Graph

°F

Sheboygan temperature yesterday

Maximum temperature yesterday: 16 °F (at 1:53 PM)
Minimum temperature yesterday: -4 °F (at 6:53 AM)
Average temperature yesterday: 7 °F

Past Weeks' High & Low Weather Summary

 TemperatureHumidityPressure
High31 °F (Feb 24, 2:53 PM)84% (Feb 16, 2:53 AM)30.74 "Hg (Feb 16, 2:53 AM)
Low-11 °F (Feb 19, 5:53 AM)34% (Feb 24, 5:53 PM)29.55 "Hg (Feb 24, 2:53 PM)
Average8 °F62%30.23 "Hg
* Reported Feb 13 5:53 PM — Feb 28 5:53 PM, Sheboygan, Weather by CustomWeather, © 2015

Note: Actual official high and low records may vary slightly from our data, if they occured in-between our weather recording intervals... More about our weather records

Advertising

Sheboygan weather history for previous 24 hours

 ConditionsComfort  
Time TempWeatherWind HumidityBarometerVisibility
5:53 PM
Sat, Feb 28
16 °FClear.8 mph59%30.56 "Hg10 mi
4:53 PM18 °FSunny.10 mph54%30.57 "Hg10 mi
3:53 PM19 °FSunny.10 mph52%30.59 "Hg10 mi
2:53 PM20 °FSunny.9 mph41%30.60 "Hg10 mi
1:53 PM19 °FSunny.9 mph43%30.63 "Hg10 mi
12:53 PM18 °FSunny.13 mph41%30.66 "Hg10 mi
11:53 AM16 °FSunny.9 mph47%30.69 "Hg10 mi
10:53 AM14 °FSunny.8 mph49%30.71 "Hg10 mi
9:53 AM11 °FSunny.6 mph53%30.71 "Hg10 mi
8:53 AM6 °FSunny.5 mph66%30.72 "Hg10 mi
7:53 AM1 °FSunny.5 mph72%30.72 "Hg10 mi
6:53 AM-2 °FSunny.6 mph75%30.70 "Hg10 mi
5:53 AM0 °FClear.6 mph68%30.69 "Hg10 mi
4:53 AM-4 °FClear.7 mphN/A30.68 "Hg10 mi
3:53 AM-3 °FClear.8 mph75%30.66 "Hg10 mi
2:53 AM2 °FClear.5 mph65%30.66 "Hg10 mi
1:53 AM2 °FClear.8 mph65%30.66 "Hg10 mi
12:53 AM4 °FClear.10 mph63%30.65 "Hg10 mi
11:53 PM
Fri, Feb 27
3 °FClear.6 mph66%30.64 "Hg10 mi
10:53 PM5 °FClear.9 mph63%30.64 "Hg10 mi
9:53 PM7 °FClear.10 mph60%30.64 "Hg10 mi
8:53 PM7 °FClear.9 mph60%30.63 "Hg10 mi
7:53 PM7 °FClear.7 mph63%30.62 "Hg10 mi
Weather by CustomWeather, © 2015

See weather overviewHow to use our weather pages